User: anonymous   Login
Location: Banksville Park
(38.5557°N, 75.1182°W)
Time: 04:44:10
(UTC+00:00)
Language:

BREEZE-M DEB (TANK) - Orbit

View from above orbital plane
View from above orbital plane
View from above satellite
View from above satellite

Ground track
Ground track

The orbit data is extracted from the following two-line orbital elements,

1 38089U 12007C   20339.27846504  .00001197  00000-0  24699-3 0  9992
2 38089  49.5897 296.3711 5044159  97.9626 319.8229  5.53338939176217
Epoch (UTC): 04 December 2020 06:40:59
Eccentricity: 0.5044159
inclination: 49.5897°
perigee height: 313 km
apogee height: 13935 km
right ascension of ascending node: 296.3711°
argument of perigee: 97.9626°
revolutions per day: 5.53338939
mean anomaly at epoch: 319.8229°
orbit number at epoch: 17621

The dashed part of the orbit path shows where the satellite is in the earth's shadow,  

DLR